1369958433307,2.23615
1369958493307,2.20337
1369958553307,2.36720
1369958613307,2.13410
1369958673307,2.16994
1369958733307,2.19543
1369958793307,2.22500
1369958853307,2.16656
1369958913307,2.20208
1369958973307,2.19528
1369959033307,2.19012
1369959093307,2.20278
1369959153307,2.12848
1369959213307,2.11174
1369959273307,2.19378
1369959333307,2.19180
1369959393307,2.18268
1369959453307,2.20777
1369959513307,2.19551
1369959573307,2.15524
1369959633307,2.16159
1369959693307,2.17260
1369959753307,2.17434
1369959813307,2.17740
1369959873307,2.20309
1369959933307,2.22311
1369959993307,2.15352
1369960053307,2.14217
1369960113307,2.17931
1369960173307,2.17704
1369960233307,2.15550
1369960293307,2.14880
1369960353307,2.17793
1369960413307,2.15436
1369960473307,2.14013
1369960533307,2.18034
1369960593307,2.17821
1369960653307,2.17499
1369960713307,2.20451
1369960773307,2.14461
1369960833307,2.17915
1369960893307,2.19141
1369960953307,2.17213
1369961013307,2.17266
1369961073307,2.18005
1369961133307,2.16385
1369961193307,2.17181
1369961253307,2.12961
1369961313307,2.14223
1369961373307,2.20823
1369961433307,2.17985
1369961493307,2.14794
1369961553307,2.09465
1369961613307,2.13460
1369961673307,2.12914
1369961733307,2.19614
1369961793307,2.14185
1369961853307,2.17256
1369961913307,2.14531
1369961973307,2.14950
1369962033318,2.14320
1369962093318,2.20915
1369962153318,2.12919
1369962213318,2.15385
1369962273318,2.16479
1369962333318,2.12615
1369962393318,2.14106
1369962453318,2.12412
1369962513318,2.14514
1369962573318,2.08034
1369962633318,2.14199
1369962693318,2.12637
1369962753318,2.14691
1369962813318,2.09910
1369962873318,2.10155
1369962933318,2.13104
1369962993318,2.13740
1369963053318,2.17628
1369963113318,2.13073
1369963173318,2.15677
1369963233318,2.15942
1369963293318,2.14348
1369963353318,2.14301
1369963413318,2.11020
1369963473318,2.12146
1369963533318,2.15647
1369963593318,2.10762
1369963653318,2.15013
1369963713318,2.08694
1369963773318,2.16208
1369963833318,2.14063
1369963893318,2.12254
1369963953318,2.11166
1369964013318,2.14864
1369964073318,2.09026
1369964133318,2.10631
1369964193318,2.13945
1369964253318,2.09804
1369964313318,2.12455
1369964373318,2.05558
1369964433318,2.14052
1369964493318,2.09449
1369964553318,2.11219
1369964613318,2.11068
1369964673318,2.05681
1369964733318,2.10527
1369964793318,2.13627
1369964853318,2.08002
1369964913318,2.12910
1369964973318,2.11763
1369965033318,2.11964
1369965093318,2.10678
1369965153318,2.06428
1369965213318,2.11166
1369965273318,2.11623
1369965333318,2.09086
1369965393318,2.07607
1369965453318,2.11720
1369965513318,2.07662
1369965573318,2.05438
1369965633328,2.15851
1369965693328,2.09316
1369965753328,2.10776
1369965813328,2.10713
1369965873328,2.07591
1369965933328,2.06451
1369965993328,2.08599
1369966053328,2.09771
1369966113328,2.10566
1369966173328,2.07958
1369966233328,2.11308
1369966293328,2.10123
1369966353328,1.85109
1369966413328,2.11799
1369966473328,2.08606
1369966533328,2.10558
1369966593328,2.11426
1369966653328,2.05485
1369966713328,2.08555
1369966773328,2.07829
1369966833328,2.09798
1369966893328,2.08148
1369966953328,2.09069
1369967013328,2.09869
1369967073328,2.09717
1369967133328,2.09610
1369967193328,2.11271
1369967253328,2.04523
1369967313328,2.09567
1369967373328,2.07175
1369967433328,2.06501
1369967493328,2.09802
1369967553328,2.06898
1369967613328,2.08246
1369967673328,2.10610
1369967733328,2.07620
1369967793328,2.09759
1369967853328,2.05276
1369967913328,2.07172
1369967973328,2.07570
1369968033328,2.03853
1369968093328,2.10939
1369968153328,2.03228
1369968213328,2.06392
1369968273328,2.08521
1369968333328,2.07028
1369968393328,2.08636
1369968453328,2.06796
1369968513328,2.05889
1369968573328,2.05221
1369968633328,2.05881
1369968693328,2.06572
1369968753328,2.06325
1369968813328,2.04305
1369968873328,2.05550
1369968933328,2.05723
1369968993328,2.01681
1369969053328,2.05601
1369969113328,2.06074
1369969173328,2.00956
1369969233338,2.04667
1369969293338,2.10496
1369969353338,2.04251
1369969413338,2.06187
1369969473338,2.04449
1369969533338,2.06507
1369969593338,2.04697
1369969653338,2.06281
1369969713338,2.07754
1369969773338,2.02088
1369969833338,2.07109
1369969893338,2.05665
1369969953338,2.05843
1369970013338,2.04183
1369970073338,2.08180
1369970133338,1.99822
1369970193338,2.04092
1369970253338,2.05152
1369970313338,2.05017
1369970373338,2.06509
1369970433338,2.06470
1369970493338,2.04629
1369970553338,2.05733
1369970613338,2.03460
1369970673338,2.02788
1369970733338,2.03916
1369970793338,2.03903
1369970853338,2.02887
1369970913338,2.02736
1369970973338,2.04589
1369971033338,2.02727
1369971093338,2.02144
1369971153338,2.02526
1369971213338,2.04414
1369971273338,2.02103
1369971333338,2.04239
1369971393338,2.04700
1369971453338,2.02545
1369971513338,2.04469
1369971573338,2.01244
1369971633338,2.01931
1369971693338,2.04866
1369971753338,2.05769
1369971813338,2.01007
1369971873338,2.01626
1369971933338,2.02867
1369971993338,2.01664
1369972053338,2.03873
1369972113338,2.03000
1369972173338,2.03509
1369972233338,2.01589
1369972293338,2.01412
1369972353338,1.99728
1369972413338,2.02628
1369972473338,1.99606
1369972533338,2.01799
1369972593338,2.03111
1369972653338,2.01274
1369972713338,2.02541
1369972773338,2.00289
1369972833347,2.03785
1369972893347,2.06981
1369972953347,2.01146
1369973013347,2.00732
1369973073347,2.04634
1369973133347,2.03764
1369973193347,1.98843
1369973253347,2.01126
1369973313347,2.01630
1369973373347,2.00132
1369973433347,2.02410
1369973493347,2.03265
1369973553347,2.01242
1369973613347,1.98306
1369973673347,2.01886
1369973733347,2.00628
1369973793347,2.01383
1369973853347,2.01516
1369973913347,2.02592
1369973973347,2.00409
1369974033347,1.98376
1369974093347,2.02402
1369974153347,2.01657
1369974213347,2.01863
1369974273347,2.01244
1369974333347,2.02214
1369974393347,1.99067
1369974453347,1.99862
1369974513347,2.01130
1369974573347,2.00676
1369974633347,1.99864
1369974693347,1.99230
1369974753347,2.01640
1369974813347,2.00600
1369974873347,1.99147
1369974933347,2.01460
1369974993347,2.10194
1369975053347,2.00835
1369975113347,1.99937
1369975173347,1.96316
1369975233347,1.98013
1369975293347,1.98024
1369975353347,1.99422
1369975413347,1.99213
1369975473347,2.01375
1369975533347,1.98542
1369975593347,2.01396
1369975653347,1.97417
1369975713347,1.99352
1369975773347,1.98017
1369975833347,1.98344
1369975893347,1.99123
1369975953347,2.00740
1369976013347,2.00447
1369976073347,1.99566
1369976133347,2.00370
1369976193347,1.97467
1369976253347,1.99258
1369976313347,1.99585
1369976373347,1.98022
1369976433357,1.97135
1369976493357,1.98596
1369976553357,1.99587
1369976613357,1.99348
1369976673357,1.98734
1369976733357,1.96580
1369976793357,1.97920
1369976853357,1.98886
1369976913357,1.99124
1369976973357,1.99041
1369977033357,1.97483
1369977093357,1.95373
1369977153357,1.98360
1369977213357,1.96417
1369977273357,1.96679
1369977333357,1.96594
1369977393357,1.99065
1369977453357,1.99370
1369977513357,1.98833
1369977573357,1.97258
1369977633357,1.99467
1369977693357,1.98729
1369977753357,1.97733
1369977813357,1.97411
1369977873357,1.99473
1369977933357,1.98600
1369977993357,1.96687
1369978053357,1.97982
1369978113357,1.97125
1369978173357,1.96705
1369978233357,1.98928
1369978293357,1.97089
1369978353357,1.96968
1369978413357,1.99319
1369978473357,1.97823
1369978533357,1.98612
1369978593357,2.00700
1369978653357,2.00314
1369978713357,2.00874
1369978773357,2.00697
1369978833357,2.01081
1369978893357,1.98891
1369978953357,2.00976
1369979013357,1.98518
1369979073357,2.00712
1369979133357,1.97819
1369979193357,2.00712
1369979253357,1.99430
1369979313357,1.97927
1369979373357,1.98824
1369979433357,1.99376
1369979493357,2.01328
1369979553357,1.98898
1369979613357,1.98388
1369979673357,1.99546
1369979733357,1.99339
1369979793357,1.98630
1369979853357,1.98928
1369979913357,1.99298
1369979973357,1.97925
1369980033366,1.99691
1369980093366,1.98447
1369980153366,1.99389
1369980213366,1.99604
1369980273366,1.97675
1369980333366,1.99118
1369980393366,1.99648
1369980453366,1.96927
1369980513366,1.98085
1369980573366,2.00039
1369980633366,1.99673
1369980693366,1.98108
1369980753366,1.97611
1369980813366,1.99137
1369980873366,1.96573
1369980933366,1.96919
1369980993366,1.99235
1369981053366,1.97146
1369981113366,1.97155
1369981173366,1.99262
1369981233366,2.01425
1369981293366,1.98579
1369981353366,1.97021
1369981413366,1.99343
1369981473366,1.98647
1369981533366,1.99949
1369981593366,2.02553
1369981653366,1.99094
1369981713366,2.01094
1369981773366,2.01164
1369981833366,2.01608
1369981893366,1.99644
1369981953366,1.98743
1369982013366,1.97588
1369982073366,1.99176
1369982133366,1.98573
1369982193366,2.08485
1369982253366,2.00046
1369982313366,1.99283
1369982373366,1.99989
1369982433366,1.99079
1369982493366,2.00684
1369982553366,1.99995
1369982613366,1.99671
1369982673366,1.98884
1369982733366,1.98043
1369982793366,1.99049
1369982853366,1.98349
1369982913366,1.98897
1369982973366,1.99725
1369983033366,1.97150
1369983093366,2.02538
1369983153366,1.98379
1369983213366,1.99147
1369983273366,2.00233
1369983333366,1.98775
1369983393366,1.96420
1369983453366,2.00779
1369983513366,2.02205
1369983573366,2.00507
1369983633375,1.99694
1369983693375,1.99364
1369983753375,2.09422
1369983813375,1.98448
1369983873375,2.01360
1369983933375,1.98938
1369983993375,2.08933
1369984053375,2.00270
1369984113375,1.98754
1369984173375,1.99561
1369984233375,2.01767
1369984293375,2.00162
1369984353375,1.96807
1369984413375,1.99540
1369984473375,1.98334
1369984533375,2.00960
1369984593375,1.98602
1369984653375,1.99681
1369984713375,1.99901
1369984773375,2.00630
1369984833375,2.01251
1369984893375,1.99895
1369984953375,1.98141
1369985013375,2.01699
1369985073375,1.98200
1369985133375,2.00802
1369985193375,1.99528
1369985253375,1.99884
1369985313375,1.96550
1369985373375,2.00556
1369985433375,2.02695
1369985493375,1.99008
1369985553375,2.03412
1369985613375,2.01591
1369985673375,2.01274
1369985733375,1.99349
1369985793375,2.01393
1369985853375,1.99200
1369985913375,1.99632
1369985973375,1.99843
1369986033375,1.99011
1369986093375,1.99334
1369986153375,2.01137
1369986213375,1.99887
1369986273375,2.00650
1369986333375,1.99975
1369986393375,2.00943
1369986453375,2.02803
1369986513375,2.01372
1369986573375,1.98756
1369986633375,2.00964
1369986693375,1.99644
1369986753375,2.06982
1369986813375,2.01061
1369986873375,1.98675
1369986933375,2.00188
1369986993375,2.00533
1369987053375,2.01184
1369987113375,1.99084
1369987173375,1.99291
1369987233385,2.01955
1369987293385,1.99337
1369987353385,1.98437
1369987413385,1.99495
1369987473385,2.01213
1369987533385,1.97813
1369987593385,2.02887
1369987653385,1.99414
1369987713385,2.00345
1369987773385,2.00331
1369987833385,2.00770
1369987893385,2.02206
1369987953385,1.98740
1369988013385,2.00668
1369988073385,2.02017
1369988133385,2.00541
1369988193385,1.98931
1369988253385,1.98186
1369988313385,1.99573
1369988373385,1.99235
1369988433385,2.02039
1369988493385,2.00164
1369988553385,1.99404
1369988613385,2.01435
1369988673385,1.99880
1369988733385,2.00773
1369988793385,2.01460
1369988853385,1.99868
1369988913385,2.01044
1369988973385,1.99895
1369989033385,1.99088
1369989093385,2.00082
1369989153385,1.99419
1369989213385,1.99907
1369989273385,2.01097
1369989333385,2.01610
1369989393385,2.00967
1369989453385,2.02154
1369989513385,2.01870
1369989573385,2.00121
1369989633385,2.01276
1369989693385,2.00926
1369989753385,1.99820
1369989813385,1.99193
1369989873385,1.99243
1369989933385,2.03104
1369989993385,1.98170
1369990053385,2.00843
1369990113385,2.00228
1369990173385,1.99001
1369990233385,2.00440
1369990293385,2.02011
1369990353385,2.01797
1369990413385,1.99576
1369990473385,2.00571
1369990533385,2.00928
1369990593385,2.01529
1369990653385,1.99743
1369990713385,2.01213
1369990773385,1.99418
1369990833394,1.99165
1369990893394,1.98442
1369990953394,2.00741
1369991013394,2.00540
1369991073394,1.98649
1369991133394,1.99224
1369991193394,2.00440
1369991253394,2.00147
1369991313394,2.00398
1369991373394,2.00593
1369991433394,1.99082
1369991493394,1.81816
1369992033394,1.97801
1369992093394,1.95905
1369992153394,2.02392
1369992213394,1.97818
1369992273394,2.00455
1369992333394,1.97696
1369992393394,2.00640
1369992453394,2.00153
1369992513394,1.98978
1369992573394,1.98906
1369992633394,1.99286
1369992693394,1.97344
1369992753394,2.01565
1369992813394,1.99993
1369992873394,2.00164
1369992933394,2.00689
1369992993394,2.00879
1369993053394,2.01157
1369993113394,1.99237
1369993173394,2.00523
1369993233394,1.99825
1369993293394,1.98361
1369993353394,2.00777
1369993413394,2.00480
1369993473394,2.01181
1369993533394,1.99287
1369993593394,1.99068
1369993653394,1.99178
1369993713394,1.99032
1369993773394,1.99528
1369993833394,1.99492
1369993893394,1.97362
1369993953394,2.00340
1369994013394,1.99245
1369994073394,1.98107
1369994133394,1.99199
1369994193394,1.97926
1369994253394,2.00153
1369994313394,1.99874
1369994373394,1.98051
1369994433403,2.00333
1369994493403,1.98707
1369994553403,2.00095
1369994613403,1.99454
1369994673403,1.99946
1369994733403,2.00774
1369994793403,2.01134
1369994853403,1.97819
1369994913403,2.01042
1369994973403,1.96972
1369995033403,1.99708
1369995093403,1.97221
1369995153403,2.00183
1369995213403,1.97865
1369995273403,1.98976
1369995333403,1.96395
1369995393403,2.00904
1369995453403,2.00813
1369995513403,2.00191
1369995573403,2.00174
1369995633403,2.00658
1369995693403,1.99447
1369995753403,2.01086
1369995813403,1.99143
1369995873403,2.00257
1369995933403,1.98466
1369995993403,1.99080
1369996053403,2.00147
1369996113403,1.97940
1369996173403,2.01009
1369996233403,2.00178
1369996293403,1.98266
1369996353403,1.97596
1369996413403,1.99171
1369996473403,1.99712
1369996533403,2.00687
1369996593403,1.97971
1369996653403,1.98926
1369996713403,1.97743
1369996773403,2.00327
1369996833403,1.99084
1369996893403,1.98319
1369996953403,1.98675
1369997013403,1.99954
1369997073403,1.97643
1369997133403,2.00329
1369997193403,1.96895
1369997253403,1.99511
1369997313403,2.00804
1369997373403,1.98781
1369997433403,1.98992
1369997493403,1.97402
1369997553403,2.01144
1369997613403,2.00664
1369997673403,1.99936
1369997733403,2.02638
1369997793403,2.01402
1369997853403,1.99296
1369997913403,1.99677
1369997973403,2.01148
1369998033413,1.99347
1369998093413,2.00978
1369998153413,1.99371
1369998213413,2.01593
1369998273413,2.00088
1369998333413,1.99480
1369998393413,1.98502
1369998453413,2.01711
1369998513413,1.97852
1369998573413,2.00521
1369998633413,1.98159
1369998693413,1.98151
1369998753413,2.01514
1369998813413,1.99502
1369998873413,2.01275
1369998933413,2.01958
1369998993413,2.01639
1369999053413,2.03125
1369999113413,2.01811
1369999173413,2.02997
1369999233413,2.00290
1369999293413,2.03390
1369999353413,2.01736
1369999413413,2.00896
1369999473413,2.04409
1369999533413,2.04348
1369999593413,2.04125
1369999653413,2.04397
1369999713413,2.05044
1369999773413,2.01435
1369999833413,2.05188
1369999893413,2.05184
1369999953413,2.05561
1370000013413,2.08908
1370000073413,2.05048
1370000133413,2.07130
1370000193413,2.05346
1370000253413,2.05341
1370000313413,2.10187
1370000373413,2.07608
1370000433413,2.07588
1370000493413,2.07400
1370000553413,2.09042
1370000613413,2.07924
1370000673413,2.05706
1370000733413,2.07547
1370000793413,2.07467
1370000853413,2.04952
1370000913413,2.05653
1370000973413,2.08277
1370001033413,2.06654
1370001093413,2.07371
1370001153413,2.06792
1370001213413,2.08583
1370001273413,2.08258
1370001333413,2.04398
1370001393413,2.08999
1370001453413,2.09130
1370001513413,2.10860
1370001573413,2.08439
1370001633422,2.04893
1370001693422,2.07037
1370001753422,2.06278
1370001813422,2.05775
1370001873422,2.07889
1370001933422,2.07270
1370001993422,2.03357
1370002053422,2.07539
1370002113422,2.05195
1370002173422,2.07675
1370002233422,2.06757
1370002293422,2.04109
1370002353422,2.04314
1370002413422,2.06759
1370002473422,2.03891
1370002533422,2.04571
1370002593422,2.07355
1370002653422,2.08068
1370002713422,2.08913
1370002773422,2.04638
1370002833422,2.08919
1370002893422,2.06270
1370002953422,2.06829
1370003013422,2.06508
1370003073422,2.02774
1370003133422,2.09135
1370003193422,2.06379
1370003253422,2.05173
1370003313422,2.04997
1370003373422,2.08438
1370003433422,2.04775
1370003493422,2.10935
1370003553422,2.04136
1370003613422,2.06766
1370003673422,2.07127
1370003733422,2.07382
1370003793422,2.04031
1370003853422,2.09257
1370003913422,2.07350
1370003973422,2.06116
1370004033422,2.04188
1370004093422,2.07572
1370004153422,2.04637
1370004213422,2.06756
1370004273422,2.07046
1370004333422,2.09850
1370004393422,2.10185
1370004453422,2.05809
1370004513422,2.08796
1370004573422,2.07834
1370004633422,2.09018
1370004693422,2.05205
1370004753422,2.06457
1370004813422,2.06207
1370004873422,2.07194
1370004933422,2.06817
1370004993422,2.10120
1370005053422,2.07667
1370005113422,2.06823
1370005173422,2.05623
1370005233431,2.05596
1370005293431,2.06162
1370005353431,2.12752
1370005413431,2.08807
1370005473431,2.08661
1370005533431,2.10906
1370005593431,2.07963
1370005653431,2.08947
1370005713431,2.12341
1370005773431,2.06554
1370005833431,2.08237
1370005893431,2.04208
1370005953431,2.08726
1370006013431,2.11392
1370006073431,2.07490
1370006133431,2.08642
1370006193431,2.09513
1370006253431,2.07138
1370006313431,2.09204
1370006373431,2.06384
1370006433431,2.02150
1370006493431,2.05016
1370006553431,2.07557
1370006613431,2.13930
1370006673431,2.13948
1370006733431,2.07159
1370006793431,2.07442
1370006853431,2.09644
1370006913431,2.10027
1370006973431,2.06355
1370007033431,2.05728
1370007093431,2.07973
1370007153431,2.07135
1370007213431,2.07094
1370007273431,2.09303
1370007333431,2.08418
1370007393431,2.07969
1370007453431,2.08751
1370007513431,2.09899
1370007573431,2.07433
1370007633431,2.12527
1370007693431,2.10469
1370007753431,2.10489
1370007813431,2.07251
1370007873431,2.08118
1370007933431,2.02617
1370007993431,2.13884
1370008053431,2.13952
1370008113431,2.08770
1370008173431,2.12225
1370008233431,2.08354
1370008293431,2.05872
1370008353431,2.07900
1370008413431,2.12090
1370008473431,2.10853
1370008533431,2.12287
1370008593431,2.09794
1370008653431,2.13965
1370008713431,2.10376
1370008773431,2.10630
1370008833441,2.12892
1370008893441,2.07288
1370008953441,2.12138
1370009013441,2.08553
1370009073441,2.10981
1370009133441,2.06297
1370009193441,2.08449
1370009253441,2.10033
1370009313441,2.12696
1370009373441,2.11750
1370009433441,2.11693
1370009493441,2.10944
1370009553441,2.10242
1370009613441,2.12091
1370009673441,2.12188
1370009733441,2.13979
1370009793441,2.10106
1370009853441,2.12577
1370009913441,2.10909
1370009973441,2.10502
1370010033441,2.14453
1370010093441,2.08905
1370010153441,2.08262
1370010213441,2.17309
1370010273441,2.10110
1370010333441,2.09636
1370010393441,2.13816
1370010453441,2.14250
1370010513441,2.11019
1370010573441,2.10191
1370010633441,2.08563
1370010693441,2.15081
1370010753441,2.15110
1370010813441,2.08840
1370010873441,2.14359
1370010933441,2.11676
1370010993441,2.11261
1370011053441,2.08907
1370011113441,2.10520
1370011173441,2.09536
1370011233441,2.13180
1370011293441,2.14511
1370011353441,2.13279
1370011413441,2.10851
1370011473441,2.11515
1370011533441,2.13140
1370011593441,2.12115
1370011653441,2.15420
1370011713441,2.12463
1370011773441,2.12348
1370011833441,2.09373
1370011893441,2.13724
1370011953441,2.14636
1370012013441,2.14909
1370012073441,2.09153
1370012133441,2.09890
1370012193441,2.11150
1370012253441,2.10810
1370012313441,2.12002
1370012373441,2.15510
1370012433450,2.04915
1370012493450,2.08607
1370012553450,2.21536
1370012613450,2.13566
1370012673450,2.16296
1370012733450,2.10070
1370012793450,2.10856
1370012853450,2.10950
1370012913450,2.15136
1370012973450,2.10463
1370013033450,2.08551
1370013093450,2.11852
1370013153450,2.15139
1370013213450,2.14066
1370013273450,2.12749
1370013333450,2.14909
1370013393450,2.13043
1370013453450,2.11919
1370013513450,2.13500
1370013573450,2.11524
1370013633450,2.15155
1370013693450,2.18460
1370013753450,2.13345
1370013813450,2.15895
1370013873450,2.11894
1370013933450,2.11792
1370013993450,2.10561
1370014053450,2.13070
1370014113450,2.08104
1370014173450,2.09470
1370014233450,2.13895
1370014293450,2.12469
1370014353450,2.11866
1370014413450,2.13369
1370014473450,2.10892
1370014533450,2.06180
1370014593450,2.12367
1370014653450,2.11144
1370014713450,2.13781
1370014773450,2.11001
1370014833450,2.17556
1370014893450,2.10206
1370014953450,2.07877
1370015013450,2.11789
1370015073450,2.10726
1370015133450,2.09196
1370015193450,2.20036
1370015253450,2.08806
1370015313450,2.15180
1370015373450,2.10502
1370015433450,2.16123
1370015493450,2.08787
1370015553450,2.06263
1370015613450,2.12313
1370015673450,2.11935
1370015733450,2.12049
1370015793450,2.10031
1370015853450,2.06312
1370015913450,2.07717
1370015973450,2.06089
1370016033459,2.09192
1370016093459,2.06091
1370016153459,2.10573
1370016213459,2.03625
1370016273459,2.09306
1370016333459,2.05979
1370016393459,2.10892
1370016453459,2.11268
1370016513459,2.11360
1370016573459,2.11847
1370016633459,2.09807
1370016693459,2.08013
1370016753459,2.09435
1370016813459,2.11571
1370016873459,2.11825
1370016933459,2.08380
1370016993459,2.10429
1370017053459,2.08903
1370017113459,2.08616
1370017173459,2.10615
1370017233459,2.14322
1370017293459,1.89361
1370017353459,2.14186
1370017413459,2.12688
1370017473459,2.11549
1370017533459,2.11121
1370017593459,2.08706
1370017653459,2.05471
1370017713459,2.13593
1370017773459,2.09679
1370017833459,1.97533
1370017893459,2.12606
1370017953459,2.09901
1370018013459,2.09673
1370018073459,2.11523
1370018133459,2.08977
1370018193459,2.15374
1370018253459,2.13166
1370018313459,2.12802
1370018373459,2.12873
1370018433459,2.12634
1370018493459,2.09020
1370018553459,2.09622
1370018613459,2.08230
1370018673459,2.09393
1370018733459,2.08901
1370018793459,2.10251
1370018853459,2.10040
1370018913459,2.10567
1370018973459,2.11456
1370019033459,2.12162
1370019093459,2.08959
1370019153459,2.13767
1370019213459,2.13591
1370019273459,2.06600
1370019333459,2.10389
1370019393459,2.11643
1370019453459,2.11530
1370019513459,2.09635
1370019573459,2.09298
1370019633469,2.12080
1370019693469,2.04712
1370019753469,2.08985
1370019813469,2.11303
1370019873469,2.11588
1370019933469,2.10275
1370019993469,2.10130
1370020053469,2.07991
1370020113469,2.13817
1370020173469,2.10861
1370020233469,2.06994
1370020293469,2.09131
1370020353469,2.08439
1370020413469,2.11014
1370020473469,2.11325
1370020533469,2.09619
1370020593469,2.09679
1370020653469,2.11095
1370020713469,2.12995
1370020773469,2.12060
1370020833469,2.04787
1370020893469,2.10157
1370020953469,2.07292
1370021013469,2.06711
1370021073469,2.17633
1370021133469,2.09609
1370021193469,2.06685
1370021253469,1.95675
1370021313469,2.11466
1370021373469,2.07671
1370021433469,2.04639
1370021493469,2.08810
1370021553469,2.05846
1370021613469,2.10402
1370021673469,2.12949
1370021733469,2.06302
1370021793469,2.14952
1370021853469,2.01163
1370021913469,2.09210
1370021973469,2.07853
1370022033469,2.06567
1370022093469,2.09499
1370022153469,2.07439
1370022213469,2.05929
1370022273469,2.10693
1370022333469,2.07055
1370022393469,2.06162
1370022453469,2.11408
1370022513469,2.04355
1370022573469,2.06122
1370022633469,2.12232
1370022693469,2.12235
1370022753469,2.04566
1370022813469,2.07979
1370022873469,2.09402
1370022933469,2.08232
1370022993469,2.13735
1370023053469,2.14580
1370023113469,2.13567
1370023173469,2.10602
1370023233479,2.10171
1370023293479,2.06511
1370023353479,2.10557
1370023413479,2.10138
1370023473479,2.10668
1370023533479,2.14563
1370023593479,2.14060
1370023653479,2.06906
1370023713479,2.07871
1370023773479,2.05117
1370023833479,2.10898
1370023893479,2.07364
1370023953479,2.09616
1370024013479,2.12381
1370024073479,2.06269
1370024133479,2.06386
1370024193479,2.09324
1370024253479,2.13470